This demonstration page uses our WeatherBlox Daily Observations layout. Learn more.

Left ArrowRight Arrow

39.01783, -85.05884

Hourly Observations for August 4, 2016

Temp ( °F °C ) Dew Point ( °F °C ) Humidity (%) Winds ( mph kmh ) Pressure ( in mb ) Visibility ( mi km ) Precip ( " mm )
12:52 am 00:52 Partly Cloudy 73 22.8 71 21.7 94 94 N N/A 29.98 1015 7 11 N/A
1:52 am 01:52 Partly Cloudy 78 25.6 70 21.1 76 76 N N/A 29.97 1015 8 13 N/A
2:52 am 02:52 Partly Cloudy 76 24.4 71 21.7 85 85 E 3 6 29.96 1015 8 13 N/A
3:52 am 03:52 Mostly Cloudy 75 23.9 71 21.7 88 88 E 6 9 29.96 1015 8 13 N/A
4:52 am 04:52 Mostly Cloudy 75 23.9 71 21.7 88 88 ESE 3 6 29.96 1014 8 13 N/A
5:52 am 05:52 Mostly Cloudy with Mist and Fog 73 22.8 71 21.7 94 94 SE 5 7 29.96 1015 6 10 N/A
6:52 am 06:52 Mostly Cloudy 74 23.3 71 21.7 91 91 ESE 6 9 29.97 1015 7 11 N/A
7:52 am 07:52 Partly Cloudy 74 23.3 72 22.2 94 94 N N/A 29.99 1016 7 11 N/A
8:52 am 08:52 Partly Cloudy 77 25 73 22.8 88 88 SE 5 7 29.99 1016 9 14 N/A
9:52 am 09:52 Partly Cloudy 81 27.2 73 22.8 77 77 SSE 3 6 29.99 1016 10 16 N/A
10:52 am 10:52 Mostly Cloudy 82 27.8 73 22.8 74 74 N N/A 29.99 1016 10 16 N/A
11:52 am 11:52 Mostly Cloudy 85 29.4 72 22.2 65 65 N N/A 30.00 1016 8 13 N/A
12:52 pm 12:52 Mostly Cloudy 85 29.4 72 22.2 65 65 SSW 5 7 29.99 1016 9 14 N/A
1:52 pm 13:52 Mostly Cloudy 87 30.6 73 22.8 63 63 E 6 9 29.96 1015 9 14 N/A
2:52 pm 14:52 Mostly Cloudy 89 31.7 67 19.4 48 48 E 5 7 29.94 1014 10 16 N/A
3:52 pm 15:52 Mostly Cloudy 90 32.2 68 20 48 48 N N/A 29.93 1014 10 16 N/A
4:52 pm 16:52 Mostly Cloudy 90 32.2 69 20.6 50 50 S 6 9 29.93 1013 10 16 N/A
5:52 pm 17:52 Cloudy 86 30 70 21.1 59 59 E 9 15 29.92 1013 9 14 N/A
6:52 pm 18:52 Mostly Cloudy 81 27.2 72 22.2 74 74 W 15 24 29.92 1013 9 14 N/A
7:52 pm 19:52 Partly Cloudy 83 28.3 73 22.8 72 72 N N/A 29.91 1013 9 14 N/A
8:52 pm 20:52 Partly Cloudy 82 27.8 71 21.7 69 69 N N/A 29.91 1013 9 14 N/A
9:52 pm 21:52 Clear 77 25 73 22.8 88 88 S 7 11 29.92 1013 8 13 N/A
10:52 pm 22:52 Clear 76 24.4 73 22.8 91 91 SSW 5 7 29.92 1013 8 13 N/A
11:52 pm 23:52 Clear 76 24.4 72 22.2 88 88 WSW 5 7 29.93 1014 8 13 N/A

Powered by AerisWeather